Regional Weather Roundup
Issued by NWS

Home | Current Version | Previous Version | Graphics & Text | Print | Product List | Glossary On
Versions: 1 2 3 4 5 6 7 8 9 10 11 12 13 14 15 16 17 18 19 20 21 22 23 24 25 26 27 28 29 30 31 32 33 34 35 36 37 38 39 40 41 42 43 44 45 46 47 48 49 50
000
ASUS43 KFSD 021802
RWRSD

WEATHER ROUNDUP FOR SOUTH DAKOTA
NATIONAL WEATHER SERVICE SIOUX FALLS SD
100 PM CDT MON MAY 02 2016

NOTE: "FAIR" INDICATES FEW OR NO CLOUDS BELOW 12,000 FEET WITH NO
SIGNIFICANT WEATHER AND/OR OBSTRUCTIONS TO VISIBILITY.


SDZ001>005-009-010-012>017-021900-
NORTHWEST AND NORTH CENTRAL SOUTH DAKOTA

CITY           SKY/WX    TMP DP  RH WIND       PRES   REMARKS
BUFFALO          N/A     63  32  31 NW22G31   30.00F
FAITH            N/A     62  32  32 NW12      30.04F
MOBRIDGE       LGT RAIN  50  46  86 S6        30.03F
$$

SDZ012>016-024>037-041>051-057-063-072>074-021900-
SOUTHWEST AND SOUTH CENTRAL SOUTH DAKOTA

CITY           SKY/WX    TMP DP  RH WIND       PRES   REMARKS
RAPID CTY ARPT CLOUDY    62  32  32 N12G21    30.09F
PIERRE         SUNNY     64  38  38 W10       30.03F
CUSTER         MOSUNNY   55  25  31 NW10G16   30.12F
ELLSWORTH AFB  CLOUDY    61  32  33 N20       30.08
PHILIP         MOSUNNY   66  36  32 NW12      30.07F
PINE RIDGE     MOSUNNY   57  34  41 NW6       30.12F
WINNER         FAIR      61  39  44 W10       30.08F
$$

SDZ004>011-016>023-039-040-021900-
NORTHEAST SOUTH DAKOTA

CITY           SKY/WX    TMP DP  RH WIND       PRES   REMARKS
ABERDEEN       CLOUDY    65  31  28 MISG      30.03F
WATERTOWN      CLOUDY    63  31  30 S7        30.05F
BROOKINGS      MOSUNNY   60  32  34 MISG      30.06
SISSETON         N/A     65  29  25 SW6       30.02F
$$

SDZ017-020-022-023-036>040-048>070-021900-
SOUTHEAST SOUTH DAKOTA

CITY           SKY/WX    TMP DP  RH WIND       PRES   REMARKS
SIOUX FALLS    PTSUNNY   60  36  40 W3        30.08F
HURON          SUNNY     63  37  38 S8        30.04F
MITCHELL       MOSUNNY   61  38  42 SW6       30.08F
YANKTON        MOSUNNY   59  36  41 NW7       30.10F
$$

ABBREVIATIONS USED IN REMARKS
   TC - TEMPERATURE IN CELSIUS
  WCI - WIND CHILL INDEX
   HX - HEAT INDEX
  VSB - VISIBILITY





USA.gov is the U.S. government's official web portal to all federal, state and local government web resources and services.